Location: Iesi
(43.5167°N, 13.2333°E)
Time: 19:26:23
(UTC+00:00)

Cosmos 2208 Rocket - Pass Details

Date: 08 August 2020
Orbit: 755 x 805 km, 74.0° (Epoch: 24 September)

Event Time Altitude Azimuth Distance (km) Brightness Sun altitude
Rises 21:48:02 0° 341° (NNW) 3,265 8.5 -27.6°
Reaches altitude 10° 21:50:27 10° 343° (NNW) 2,325 7.5 -27.8°
Enters shadow 21:55:17 69° 28° (NNE) 821 4.1 -28.1°
